Tracking 29892 objects as of 21-Nov-2024
HD Live streaming from Space Station
objects crossing your sky now

STARLINK-5950

Track STARLINK-5950 now!
10-day predictions
STARLINK-5950 is classified as:


NORAD ID: 56913
Int'l Code: 2023-083AP
Perigee: 565.6 km
Apogee: 566.9 km
Inclination: 43.0 °
Period: 95.8 minutes
Semi major axis: 6937 km
RCS: Unknown
Launch date: June 12, 2023
Source: United States (US)
Launch site: AIR FORCE EASTERN TEST RANGE (AFETR)
Your satellite tracking list
Your tracking list is empty




NASA's NSSDC Master Catalog

Two Line Element Set (TLE):
1 56913U 23083AP  24325.88009131  .00001876  00000-0  15389-3 0  9997
2 56913  43.0020 123.6223 0000970 241.8675 118.2070 15.02534179 80546
Source of the keplerian elements: AFSPC